This demonstration page uses our WeatherBlox Daily Observations layout. Learn more.

Left ArrowRight Arrow

41.55636, -103.73856

Hourly Observations for February 6, 2020

Temp ( °F °C ) Dew Point ( °F °C ) Humidity (%) Winds ( mph kmh ) Pressure ( in mb ) Visibility ( mi km ) Precip ( " mm )
12:58 am 00:58 Mostly Cloudy 22 -5.6 13 -10.8 67 67 WNW 14 22 29.99 1016 10 16 N/A
1:58 am 01:58 Cloudy 21 -5.9 11 -11.5 65 65 WNW 14 22 29.98 1015 10 16 N/A
2:58 am 02:58 Cloudy 20 -6.6 12 -11.2 70 70 W 8 13 29.95 1014 10 16 N/A
3:58 am 03:58 Cloudy 22 -5.8 12 -10.9 68 68 WNW 13 20 29.91 1013 10 16 N/A
4:58 am 04:58 Mostly Cloudy 20 -6.7 11 -11.5 69 69 WNW 12 19 29.89 1012 10 16 N/A
5:58 am 05:58 Clear 15 -9.5 9 -12.6 78 78 W 9 15 29.88 1012 10 16 N/A
6:58 am 06:58 Clear 16 -9.1 9 -12.9 74 74 WSW 6 9 29.85 1011 10 16 N/A
7:58 am 07:58 Clear 17 -8.1 10 -12.5 71 71 WSW 7 11 29.81 1010 10 16 N/A
8:58 am 08:58 Clear 16 -8.9 9 -12.6 75 75 W 10 17 29.80 1009 10 16 N/A
9:58 am 09:58 Clear 17 -8.6 9 -12.7 73 73 WNW 14 22 29.78 1009 10 16 N/A
10:58 am 10:58 Clear 15 -9.4 8 -13.1 75 75 WNW 13 20 29.76 1008 10 16 N/A
11:58 am 11:58 Mostly Clear 17 -8.6 9 -12.8 72 72 W 7 11 29.75 1008 10 16 N/A
12:58 pm 12:58 Mostly Cloudy 22 -5.5 13 -10.3 69 69 WNW 12 19 29.71 1006 10 16 N/A
1:58 pm 13:58 Mostly Cloudy 23 -4.8 14 -10.1 67 67 WNW 13 20 29.72 1007 10 16 N/A
2:59 pm 14:59 Mostly Cloudy 26 -3.5 16 -8.9 67 67 WNW 15 24 29.72 1006 10 16 N/A
3:56 pm 15:56 Sunny 26 -3.4 17 -8.4 69 69 WNW 13 20 29.71 1006 10 16 N/A
4:56 pm 16:56 Mostly Cloudy 30 -1 20 -6.5 67 67 NW 17 28 29.72 1006 10 16 N/A
5:56 pm 17:56 Mostly Cloudy 32 -0.2 22 -5.7 67 67 NW 22 35 29.71 1006 10 16 N/A
6:56 pm 18:56 Mostly Cloudy 34 0.9 22 -5.5 63 63 NW 25 41 29.67 1005 10 16 N/A
7:57 pm 19:57 Mostly Cloudy 34 0.9 23 -5.1 65 65 NW 25 41 29.67 1005 10 16 N/A
8:56 pm 20:56 Mostly Cloudy with Light Snow 32 0.1 27 -2.9 80 80 NW 22 35 29.67 1005 10 16 N/A
9:58 pm 21:58 Cloudy with Light Showers 32 0.1 28 -2.1 85 85 NNW 15 24 29.69 1005 10 16 N/A
10:58 pm 22:58 Windy with Rain Showers Likely 33 0.3 26 -3.2 78 78 NW 20 31 29.71 1006 10 16 N/A
11:58 pm 23:58 Mostly Cloudy 32 -0.2 25 -3.7 78 78 NNW 18 30 29.74 1007 10 16 N/A

Powered by AerisWeather